Le nostre stazioni meteo in Italia

Pubblicità
Il mio iltempo24.it
Winterbourne No 2, Gran Bretagna (99062): Temperatura & dewpoint: 12.01.2020 08:00:00 - 18.01.2020 08:00:00 (GMT)Winterbourne No 2, Gran Bretagna (99062): Temperatura -20cm & Temperatura -100cm: 12.01.2020 08:00:00 - 18.01.2020 08:00:00 (GMT)Winterbourne No 2, Gran Bretagna (99062): precipitazioni: 12.01.2020 08:00:00 - 18.01.2020 08:00:00 (GMT)
Data & Tempo tt [°C] td [°C] tt -20cm [°C] tt -100cm [°C] rr [mm]
18.01.2020 08:00:00 1,1 -0,4 - - 0,0
18.01.2020 07:00:00 1,6 -0,3 - - 0,0
18.01.2020 06:00:00 1,6 0,0 - - 0,0
18.01.2020 05:00:00 1,8 0,3 - - 0,0
18.01.2020 04:00:00 1,9 0,5 - - 0,0
18.01.2020 03:00:00 2,0 0,9 - - 0,0
18.01.2020 02:00:00 1,7 0,9 - - 0,0
18.01.2020 01:00:00 2,0 1,1 - - 0,0
18.01.2020 00:00:00 2,1 1,1 - - 0,0
17.01.2020 23:00:00 2,3 1,2 - - 0,0
17.01.2020 22:00:00 2,8 1,5 - - 0,0
17.01.2020 21:00:00 2,6 1,4 - - 0,0
17.01.2020 20:00:00 2,6 1,4 - - 0,0
17.01.2020 19:00:00 3,2 1,5 - - 0,0
17.01.2020 18:00:00 3,7 1,6 - - 0,0
17.01.2020 17:00:00 4,0 1,7 - - 0,0
17.01.2020 16:00:00 4,6 2,6 - - 0,0
17.01.2020 15:00:00 4,8 2,8 - - 0,0
17.01.2020 14:00:00 4,4 3,0 - - 0,2
17.01.2020 13:00:00 3,9 2,2 - - 0,4
17.01.2020 12:00:00 3,5 2,6 - - 0,8
17.01.2020 11:00:00 5,3 4,2 - - 2,4
17.01.2020 10:00:00 6,8 5,3 - - 0,0
17.01.2020 09:00:00 6,6 5,5 6,7 7,5 0,0
17.01.2020 08:00:00 6,8 5,7 - - 0,0
17.01.2020 07:00:00 7,5 6,5 - - 1,4
17.01.2020 06:00:00 7,4 6,6 - - 0,0
17.01.2020 05:00:00 7,5 6,5 - - 0,0
17.01.2020 04:00:00 7,1 5,9 - - 0,0
17.01.2020 03:00:00 7,4 6,4 - - 0,0
17.01.2020 02:00:00 7,2 6,2 - - 0,0
17.01.2020 01:00:00 7,9 6,2 - - 0,0
17.01.2020 00:00:00 8,2 5,8 - - 0,0
16.01.2020 23:00:00 8,8 6,2 - - 0,0
16.01.2020 22:00:00 9,5 6,4 - - 0,0
16.01.2020 21:00:00 10,1 7,0 - - 0,0
16.01.2020 20:00:00 11,0 9,3 - - 0,0
16.01.2020 19:00:00 11,0 10,0 - - 0,0
16.01.2020 18:00:00 10,3 9,6 - - 0,4
16.01.2020 17:00:00 10,1 9,1 - - 0,4
16.01.2020 16:00:00 9,2 8,4 - - 1,0
16.01.2020 15:00:00 9,5 8,1 - - 0,8
16.01.2020 14:00:00 9,1 7,8 - - 0,6
16.01.2020 13:00:00 8,7 7,3 - - 0,2
16.01.2020 12:00:00 8,3 6,1 - - 0,0
16.01.2020 11:00:00 7,6 5,7 - - 0,0
16.01.2020 10:00:00 7,0 5,0 - - 0,0
16.01.2020 09:00:00 6,7 5,1 6,2 7,5 0,0
16.01.2020 08:00:00 6,3 5,0 - - 0,0
16.01.2020 07:00:00 6,3 5,0 - - 0,0
16.01.2020 06:00:00 6,1 5,1 - - 0,0
16.01.2020 05:00:00 5,6 4,6 - - 0,0
16.01.2020 04:00:00 4,8 4,1 - - 0,0
16.01.2020 03:00:00 3,6 2,8 - - 0,0
16.01.2020 02:00:00 4,7 3,2 - - 0,0
16.01.2020 01:00:00 5,1 3,6 - - 0,0
16.01.2020 00:00:00 4,9 3,2 - - 0,0
15.01.2020 23:00:00 5,2 3,1 - - 0,0
15.01.2020 22:00:00 5,8 3,6 - - 0,0
15.01.2020 21:00:00 5,9 3,7 - - 0,0
15.01.2020 20:00:00 6,2 3,3 - - 0,0
15.01.2020 19:00:00 5,5 2,6 - - 0,0
15.01.2020 18:00:00 5,9 2,4 - - 0,0
15.01.2020 17:00:00 6,2 2,2 - - 0,0
15.01.2020 16:00:00 7,1 2,4 - - 0,0
15.01.2020 15:00:00 7,4 2,3 - - 0,0
15.01.2020 14:00:00 8,0 2,6 - - 0,0
15.01.2020 13:00:00 8,3 3,6 - - 0,2
15.01.2020 12:00:00 8,1 3,9 - - 0,0
15.01.2020 11:00:00 6,6 4,0 - - 0,0
15.01.2020 10:00:00 6,1 4,5 - - 0,0
15.01.2020 09:00:00 6,1 3,6 6,7 7,5 0,0
15.01.2020 08:00:00 6,0 3,5 - - 0,0
15.01.2020 07:00:00 5,8 3,8 - - 0,0
15.01.2020 06:00:00 5,8 3,9 - - 0,0
15.01.2020 05:00:00 5,6 3,6 - - 0,0
15.01.2020 04:00:00 6,1 4,0 - - 0,0
15.01.2020 03:00:00 5,9 4,1 - - 0,0
15.01.2020 02:00:00 6,0 4,3 - - 0,4
15.01.2020 01:00:00 6,6 5,3 - - 0,2
15.01.2020 00:00:00 7,0 5,0 - - 1,0
14.01.2020 23:00:00 7,7 4,8 - - 0,0
14.01.2020 22:00:00 8,3 5,7 - - 0,0
14.01.2020 21:00:00 9,3 6,9 - - 0,0
14.01.2020 20:00:00 10,1 9,0 - - 1,2
14.01.2020 19:00:00 10,9 9,5 - - 1,0
14.01.2020 18:00:00 11,6 9,6 - - 0,8
14.01.2020 17:00:00 12,5 10,3 - - 0,2
14.01.2020 16:00:00 12,7 10,9 - - 0,0
14.01.2020 15:00:00 12,2 11,2 - - 0,0
14.01.2020 14:00:00 10,9 10,1 - - 0,2
14.01.2020 13:00:00 8,4 7,9 - - 0,8
14.01.2020 12:00:00 7,2 6,4 - - 1,2
14.01.2020 11:00:00 7,5 5,2 - - 0,0
14.01.2020 10:00:00 6,7 4,0 - - 0,0
14.01.2020 09:00:00 6,2 3,6 6,4 7,7 0,0
14.01.2020 08:00:00 5,3 3,3 - - 0,0
14.01.2020 07:00:00 5,5 3,9 - - 0,0
14.01.2020 06:00:00 5,1 4,1 - - 0,0
14.01.2020 05:00:00 5,5 4,0 - - 0,0
14.01.2020 04:00:00 5,8 3,6 - - 0,0
14.01.2020 03:00:00 5,9 3,6 - - 0,0
14.01.2020 02:00:00 5,7 4,5 - - 0,0
14.01.2020 01:00:00 5,8 4,2 - - 0,2
14.01.2020 00:00:00 6,2 4,0 - - 0,0
13.01.2020 23:00:00 6,1 4,6 - - 0,0
13.01.2020 22:00:00 6,0 3,9 - - 0,0
13.01.2020 21:00:00 6,2 4,5 - - 0,0
13.01.2020 20:00:00 6,0 4,1 - - 0,0
13.01.2020 19:00:00 5,4 4,0 - - 5,0
13.01.2020 18:00:00 9,0 7,8 - - 0,6
13.01.2020 17:00:00 8,1 7,0 - - 1,2
13.01.2020 16:00:00 8,2 6,1 - - 0,2
13.01.2020 15:00:00 8,0 6,1 - - 0,2
13.01.2020 14:00:00 7,6 6,1 - - 0,2
13.01.2020 13:00:00 8,3 5,1 - - 0,0
13.01.2020 12:00:00 7,4 6,0 - - 0,2
13.01.2020 11:00:00 7,1 5,8 - - 0,2
13.01.2020 10:00:00 5,5 4,9 - - 0,0
13.01.2020 09:00:00 4,3 3,7 6,7 7,7 0,0
13.01.2020 08:00:00 4,2 3,4 - - 0,0
13.01.2020 07:00:00 4,6 3,7 - - 0,0
13.01.2020 06:00:00 5,0 4,3 - - 0,0
13.01.2020 05:00:00 4,3 3,8 - - 0,0
13.01.2020 04:00:00 4,3 3,7 - - 0,0
13.01.2020 03:00:00 4,7 3,8 - - 0,0
13.01.2020 02:00:00 4,9 4,4 - - 0,0
13.01.2020 01:00:00 4,7 4,3 - - 0,0
13.01.2020 00:00:00 4,9 4,2 - - 0,0
12.01.2020 23:00:00 4,5 3,8 - - 0,0
12.01.2020 22:00:00 5,1 3,6 - - 0,0
12.01.2020 21:00:00 5,0 3,4 - - 0,0
12.01.2020 20:00:00 5,6 3,5 - - 0,0
12.01.2020 19:00:00 5,7 3,5 - - 0,0
12.01.2020 18:00:00 4,5 3,1 - - 0,0
12.01.2020 17:00:00 5,9 3,5 - - 0,0
12.01.2020 16:00:00 6,9 3,7 - - 0,0
12.01.2020 15:00:00 7,8 3,6 - - 0,0
12.01.2020 14:00:00 8,8 3,5 - - 0,0
12.01.2020 13:00:00 8,6 3,6 - - 0,0
12.01.2020 12:00:00 8,1 6,2 - - 0,0
12.01.2020 11:00:00 7,6 5,4 - - 0,0
12.01.2020 10:00:00 7,8 6,8 - - 1,0
12.01.2020 09:00:00 8,4 6,4 7,2 7,7 0,0
12.01.2020 08:00:00 8,3 6,0 - - 0,0

tt = Temperatura
td = dewpoint
tt -20cm = Temperatura -20cm
tt -100cm = Temperatura -100cm
rr = precipitazioni

Stazioni seguenti

WeatherPro
AMSI
MeteoEarth